Terminal Aerodrome Forecast
Issued by NWS

Home | Current Version | Previous Version | Graphics & Text | Print | Product List | Glossary Off
Versions: 1 2 3 4 5 6 7 8 9 10 11 12 13 14 15 16 17 18 19 20

000
FTUS43 KDDC 271502 AAB
TAFGCK
TAF AMD
KGCK 271502Z 2715/2812 35008KT P6SM SCT030
     FM272000 32010KT P6SM VCTS BKN200CB
     FM280300 32011KT P6SM SCT250=

USA.gov is the U.S. government's official web portal to all federal, state and local government web resources and services.